#timestamp,LO_Frequency,Hit,StdDev 
1657828815.6,286046989.1,N
1657828835.5,286046989.7,N
1657828855.3,286046989.1,N
1657828875.1,286046987.0,N
1657828895.9,286046989.7,N
1657828915.7,286046986.8,N
1657828935.5,286046980.7,Y
1657828955.4,286046987.0,P
1657828975.2,286046986.8,P
1657828995.1,286046989.4,P
1657828996.0,286046989.4,Y
1657829015.8,286047003.3,P
1657829035.6,286047007.3,N
1657829055.5,286047007.7,N
1657829075.3,286047010.2,N
1657829095.2,286047010.2,N
1657829115.9,286047010.3,N
1657829135.7,286047012.3,N
1657829155.6,286047012.2,N
1657829175.4,286047012.2,N
1657829195.2,286047013.9,N
1657829215.1,286047016.4,N
1657829216.0,286047016.4,N
1657829235.8,286047017.3,N
1657829255.7,286047023.4,Y
1657829275.5,286047018.8,P
1657829295.3,286047021.6,P
1657829315.2,286047023.5,P
1657829335.0,286047021.5,Y
1657829335.9,286047021.5,P
1657829355.7,286047004.9,P
1657829375.6,286047008.1,N
1657829395.4,286047009.0,N
1657829415.3,286047009.9,N
1657829435.1,286047009.1,N
1657829436.0,286047009.1,N
1657829455.8,286047010.0,N
1657829475.7,286047015.2,Y
1657829495.5,286046999.9,P
1657829515.3,286046999.1,N
1657829535.2,286046999.0,N
1657829555.0,286047001.8,N
1657829555.9,286047001.8,N
1657829575.8,286047001.2,N
1657829595.6,286046996.9,N
1657829615.4,286046996.3,N
1657829635.3,286046992.0,N
1657829655.1,286046992.2,N
1657829675.8,286046990.2,N
1657829695.7,286046989.9,N
1657829715.5,286046989.6,N
1657829735.4,286046992.7,N
1657829755.2,286046993.6,N
1657829775.0,286046996.7,N
1657829775.9,286046996.7,N
1657829795.8,286046995.6,N
1657829815.6,286046997.4,N
1657829835.4,286046998.2,N
1657829855.3,286046998.4,N
1657829875.1,286046998.8,N
1657829895.9,286046995.1,N
1657829915.7,286046994.5,N
1657829935.5,286046993.1,N
1657829955.4,286046995.4,N
1657829975.2,286046995.6,N
1657829995.0,286046993.0,N
1657829995.9,286046993.0,N
1657830015.8,286046990.2,N
1657830035.6,286046989.9,N
1657830055.5,286046987.3,Y
1657830075.3,286046991.9,P
1657830095.1,286046990.6,P
1657830115.9,286046991.3,P
1657830135.7,286046991.0,Y
1657830155.6,286047005.5,P
1657830175.4,286047010.7,N
1657830195.2,286047011.0,N
1657830215.1,286047013.0,N
1657830216.0,286047013.0,N
1657830235.8,286047015.6,N
1657830255.7,286047016.8,N
1657830275.5,286047021.1,N
1657830295.3,286047022.4,N
1657830315.2,286047025.3,Y
1657830335.0,286047018.9,P
1657830335.9,286047018.9,P
1657830355.7,286047025.1,P
1657830375.6,286047020.8,Y
1657830395.4,286046999.0,P
1657830415.3,286046996.5,N
1657830435.1,286047004.3,N
1657830455.8,286047000.9,N
1657830475.7,286047000.4,N
1657830495.5,286047002.1,N
1657830515.4,286047008.9,N
1657830535.2,286047013.0,N
1657830555.0,286047011.8,N
1657830555.9,286047011.8,N
1657830575.8,286047012.7,N
1657830595.6,286047016.6,N
1657830615.4,286047019.6,N
1657830635.3,286047021.2,N
1657830655.1,286047024.3,Y
1657830675.9,286047014.4,P
1657830695.7,286047013.6,P
1657830715.5,286047015.3,P
1657830735.4,286047011.2,Y
1657830755.2,286046995.1,P
1657830775.0,286046997.7,N
1657830776.0,286046997.7,N
1657830795.8,286046998.7,N
1657830815.6,286046999.6,N
1657830835.5,286046997.3,N
1657830855.3,286046997.4,N
1657830875.1,286046999.1,N
1657830895.9,286046997.0,N
1657830915.7,286046999.5,N
1657830935.5,286047004.2,N
1657830955.4,286047003.1,N
1657830975.2,286046998.2,N
1657830995.1,286046996.0,N
1657830996.0,286046996.0,N
1657831015.8,286046995.2,N
1657831035.6,286046996.7,N
1657831055.5,286046998.8,N
1657831075.3,286047001.5,N
1657831095.1,286047002.1,N
1657831115.9,286047001.6,N
1657831135.7,286047005.8,N
1657831155.6,286047004.8,N
1657831175.4,286047007.3,N
1657831195.2,286047009.6,N
1657831215.1,286047015.0,Y
1657831216.0,286047015.0,P
1657831235.8,286047015.2,N
1657831255.6,286047018.5,N
1657831275.5,286047015.9,N
1657831295.3,286047016.6,N
1657831315.2,286047014.0,N
1657831335.9,286047015.5,N
1657831355.7,286047016.7,Y
1657831375.6,286047002.8,P
1657831395.4,286046999.9,N
1657831415.2,286047002.5,N
1657831435.1,286047000.8,N
1657831436.0,286047000.8,N
1657831455.8,286047003.7,N
1657831475.7,286047001.9,N
1657831495.5,286047000.0,N
1657831515.3,286047002.0,N
1657831535.2,286047003.8,N
1657831555.0,286047004.3,N
1657831555.9,286047004.3,N
1657831575.8,286047005.6,N
1657831595.6,286047007.5,N
1657831615.4,286047009.1,N
1657831635.3,286047007.8,N
1657831655.1,286047010.5,N
1657831675.8,286047010.0,N
1657831695.7,286047009.3,N
1657831715.9,286047013.7,Y
1657831735.7,286047012.3,P
1657831755.5,286047016.8,P
1657831775.4,286047015.1,P
1657831795.2,286047016.2,Y
1657831815.0,286047003.6,P
1657831815.9,286047003.6,N
1657831835.8,286047003.5,N
1657831855.6,286047004.9,N
1657831875.5,286047003.1,N
1657831895.3,286047001.9,N
1657831915.1,286047005.5,N
1657831935.9,286047004.8,N
1657831955.7,286047005.2,N
1657831975.5,286047006.6,N
1657831995.4,286047006.3,N
1657832015.2,286047009.0,Y
1657832035.1,286047005.1,P
1657832036.0,286047005.1,P
1657832055.8,286047005.0,P
1657832075.6,286047007.2,Y
1657832095.5,286046997.7,P
1657832115.3,286046994.8,N
1657832135.1,286046991.8,N
1657832155.9,286046995.1,N
1657832175.7,286046997.3,N
1657832195.6,286047002.3,N
1657832215.4,286047007.6,N
1657832235.2,286047007.9,N
1657832255.1,286047009.1,N
1657832256.0,286047009.1,N
1657832275.8,286047008.6,N
1657832295.6,286047009.3,N
1657832315.5,286047012.9,N
1657832335.3,286047011.3,N
1657832355.2,286047013.9,N
1657832375.9,286047007.9,N
1657832395.7,286047006.2,N
